Time,TemperatureF,DewpointF,PressureIn,WindDirection,WindDirectionDegrees,WindSpeedMPH,WindSpeedGustMPH,Humidity,HourlyPrecipIn,Conditions,Clouds,dailyrainin,SoftwareType,DateUTC
2013-10-24 00:01:00,46.7,38.9,29.82,WNW,292,4.6,4.6,74,0.00,,,0.00,VWS V13.00,2013-10-24 04:01:00,
2013-10-24 00:02:00,46.5,38.7,29.83,West,270,4.6,4.6,74,0.00,,,0.00,VWS V13.00,2013-10-24 04:02:00,
2013-10-24 00:07:00,46.5,38.7,29.82,NNW,338,3.3,4.6,74,0.00,,,0.00,VWS V13.00,2013-10-24 04:07:00,
2013-10-24 00:12:00,46.2,38.4,29.83,North,0,0.0,4.6,74,0.00,,,0.00,VWS V13.00,2013-10-24 04:12:00,
2013-10-24 00:17:00,46.2,38.4,29.83,SW,225,0.0,4.6,74,0.00,,,0.00,VWS V13.00,2013-10-24 04:17:00,
2013-10-24 00:22:00,46.2,38.4,29.83,WSW,248,7.6,7.6,74,0.00,,,0.00,VWS V13.00,2013-10-24 04:22:00,
2013-10-24 00:27:00,46.0,38.5,29.83,West,270,0.0,7.6,75,0.00,,,0.00,VWS V13.00,2013-10-24 04:27:00,
2013-10-24 00:32:00,46.0,38.5,29.83,NW,315,0.0,7.6,75,0.00,,,0.00,VWS V13.00,2013-10-24 04:32:00,
2013-10-24 00:37:00,46.0,38.5,29.83,WNW,292,2.4,7.6,75,0.00,,,0.00,VWS V13.00,2013-10-24 04:37:00,
2013-10-24 00:42:00,46.0,38.5,29.84,NW,315,4.6,4.6,75,0.00,,,0.00,VWS V13.00,2013-10-24 04:42:00,
2013-10-24 00:47:00,45.8,38.3,29.84,SW,225,0.0,4.6,75,0.00,,,0.00,VWS V13.00,2013-10-24 04:47:00,
2013-10-24 00:52:00,45.6,38.5,29.84,SW,225,2.9,4.6,76,0.00,,,0.00,VWS V13.00,2013-10-24 04:52:00,
2013-10-24 00:57:00,45.6,38.5,29.84,NNW,338,1.5,4.6,76,0.00,,,0.00,VWS V13.00,2013-10-24 04:57:00,
2013-10-24 01:02:00,45.6,38.5,29.84,NE,45,0.0,3.1,76,0.00,,,0.00,VWS V13.00,2013-10-24 05:02:00,
2013-10-24 01:07:00,45.6,38.5,29.84,ENE,68,0.0,3.1,76,0.00,,,0.00,VWS V13.00,2013-10-24 05:07:00,
2013-10-24 01:12:00,45.5,38.0,29.84,NW,315,3.5,3.5,75,0.00,,,0.00,VWS V13.00,2013-10-24 05:12:00,
2013-10-24 01:17:00,45.3,38.2,29.85,WNW,292,0.0,3.5,76,0.00,,,0.00,VWS V13.00,2013-10-24 05:17:00,
2013-10-24 01:22:00,45.3,38.2,29.85,West,270,10.0,10.0,76,0.00,,,0.00,VWS V13.00,2013-10-24 05:22:00,
2013-10-24 01:27:00,45.3,38.2,29.85,West,270,2.0,10.0,76,0.00,,,0.00,VWS V13.00,2013-10-24 05:27:00,
2013-10-24 01:32:00,45.1,38.0,29.85,SSE,158,0.0,10.0,76,0.00,,,0.00,VWS V13.00,2013-10-24 05:32:00,
2013-10-24 01:37:00,45.1,38.0,29.85,West,270,2.2,10.0,76,0.00,,,0.00,VWS V13.00,2013-10-24 05:37:00,
2013-10-24 01:42:00,45.1,38.0,29.85,North,0,0.0,0.0,76,0.00,,,0.00,VWS V13.00,2013-10-24 05:42:00,
2013-10-24 01:47:00,45.1,38.0,29.85,West,270,4.9,4.9,76,0.00,,,0.00,VWS V13.00,2013-10-24 05:47:00,
2013-10-24 01:52:00,45.1,38.3,29.86,WNW,292,7.6,7.6,77,0.00,,,0.00,VWS V13.00,2013-10-24 05:52:00,
2013-10-24 01:57:00,45.1,38.3,29.86,SW,225,0.0,9.1,77,0.00,,,0.00,VWS V13.00,2013-10-24 05:57:00,
2013-10-24 02:02:00,44.9,38.1,29.86,WSW,248,2.4,4.0,77,0.00,,,0.00,VWS V13.00,2013-10-24 06:02:00,
2013-10-24 02:07:00,44.7,37.9,29.86,WNW,292,3.5,4.0,77,0.00,,,0.00,VWS V13.00,2013-10-24 06:07:00,
2013-10-24 02:12:00,44.7,37.9,29.86,West,270,3.5,4.0,77,0.00,,,0.00,VWS V13.00,2013-10-24 06:12:00,
2013-10-24 02:17:00,44.7,37.9,29.86,WNW,292,5.3,5.3,77,0.00,,,0.00,VWS V13.00,2013-10-24 06:17:00,
2013-10-24 02:22:00,44.7,37.9,29.86,WNW,292,4.6,4.6,77,0.00,,,0.00,VWS V13.00,2013-10-24 06:22:00,
2013-10-24 02:27:00,44.6,37.8,29.87,West,270,3.1,4.6,77,0.00,,,0.00,VWS V13.00,2013-10-24 06:27:00,
2013-10-24 02:32:00,44.6,37.8,29.87,WNW,292,4.0,4.6,77,0.00,,,0.00,VWS V13.00,2013-10-24 06:32:00,
2013-10-24 02:37:00,44.6,37.8,29.87,NW,315,0.0,6.0,77,0.00,,,0.00,VWS V13.00,2013-10-24 06:37:00,
2013-10-24 02:42:00,44.4,37.7,29.87,West,270,0.0,11.6,77,0.00,,,0.00,VWS V13.00,2013-10-24 06:42:00,
2013-10-24 02:47:00,44.4,37.7,29.87,West,270,2.6,11.6,77,0.00,,,0.00,VWS V13.00,2013-10-24 06:47:00,
2013-10-24 02:52:00,44.4,37.7,29.87,West,270,4.4,11.6,77,0.00,,,0.00,VWS V13.00,2013-10-24 06:52:00,
2013-10-24 02:57:00,44.4,37.7,29.87,NE,45,2.9,11.6,77,0.00,,,0.00,VWS V13.00,2013-10-24 06:57:00,
2013-10-24 03:02:00,44.2,37.5,29.88,WNW,292,9.6,9.6,77,0.00,,,0.00,VWS V13.00,2013-10-24 07:02:00,
2013-10-24 03:07:00,44.2,37.8,29.88,WNW,292,3.5,9.6,78,0.00,,,0.00,VWS V13.00,2013-10-24 07:07:00,
2013-10-24 03:12:00,44.2,37.8,29.87,WNW,292,4.6,9.6,78,0.00,,,0.00,VWS V13.00,2013-10-24 07:12:00,
2013-10-24 03:17:00,44.2,37.8,29.88,West,270,0.0,9.6,78,0.00,,,0.00,VWS V13.00,2013-10-24 07:17:00,
2013-10-24 03:22:00,44.0,37.6,29.88,WSW,248,0.0,2.9,78,0.00,,,0.00,VWS V13.00,2013-10-24 07:22:00,
2013-10-24 03:27:00,43.8,37.4,29.89,West,270,0.0,13.4,78,0.00,,,0.00,VWS V13.00,2013-10-24 07:27:00,
2013-10-24 03:32:00,43.8,37.4,29.89,WSW,248,5.8,13.4,78,0.00,,,0.00,VWS V13.00,2013-10-24 07:32:00,
2013-10-24 03:37:00,43.8,37.4,29.89,West,270,1.7,13.4,78,0.00,,,0.00,VWS V13.00,2013-10-24 07:37:00,
2013-10-24 03:42:00,43.8,37.4,29.89,WNW,292,0.0,0.0,78,0.00,,,0.00,VWS V13.00,2013-10-24 07:42:00,
2013-10-24 03:47:00,43.8,37.4,29.89,West,270,0.0,0.0,78,0.00,,,0.00,VWS V13.00,2013-10-24 07:47:00,
2013-10-24 03:52:00,43.8,37.4,29.89,NNW,338,2.0,2.0,78,0.00,,,0.00,VWS V13.00,2013-10-24 07:52:00,
2013-10-24 03:57:00,43.7,37.3,29.89,SW,225,11.8,11.8,78,0.00,,,0.00,VWS V13.00,2013-10-24 07:57:00,
2013-10-24 04:02:00,43.7,37.3,29.89,NW,315,0.0,0.0,78,0.00,,,0.00,VWS V13.00,2013-10-24 08:02:00,
2013-10-24 04:07:00,43.5,37.1,29.89,NE,45,0.0,4.2,78,0.00,,,0.00,VWS V13.00,2013-10-24 08:07:00,
2013-10-24 04:12:00,43.3,36.9,29.89,West,270,2.6,4.2,78,0.00,,,0.00,VWS V13.00,2013-10-24 08:12:00,
2013-10-24 04:17:00,43.3,36.9,29.89,West,270,0.0,4.2,78,0.00,,,0.00,VWS V13.00,2013-10-24 08:17:00,
2013-10-24 04:22:00,43.3,37.2,29.89,WNW,292,0.0,0.0,79,0.00,,,0.00,VWS V13.00,2013-10-24 08:22:00,
2013-10-24 04:28:00,43.3,37.2,29.90,West,270,0.0,2.2,79,0.00,,,0.00,VWS V13.00,2013-10-24 08:28:00,
2013-10-24 04:33:00,43.1,37.0,29.90,WSW,248,4.0,4.0,79,0.00,,,0.00,VWS V13.00,2013-10-24 08:33:00,
2013-10-24 04:38:00,43.1,37.0,29.90,NW,315,3.8,4.0,79,0.00,,,0.00,VWS V13.00,2013-10-24 08:38:00,
2013-10-24 04:43:00,42.9,36.8,29.90,NW,315,4.2,4.2,79,0.00,,,0.00,VWS V13.00,2013-10-24 08:43:00,
2013-10-24 04:48:00,42.9,36.8,29.90,NW,315,0.0,4.2,79,0.00,,,0.00,VWS V13.00,2013-10-24 08:48:00,
2013-10-24 04:53:00,42.9,36.8,29.90,NNW,338,2.2,4.2,79,0.00,,,0.00,VWS V13.00,2013-10-24 08:53:00,
2013-10-24 04:58:00,42.9,36.8,29.90,NW,315,0.0,4.2,79,0.00,,,0.00,VWS V13.00,2013-10-24 08:58:00,
2013-10-24 05:03:00,42.8,36.8,29.91,West,270,0.0,0.0,79,0.00,,,0.00,VWS V13.00,2013-10-24 09:03:00,
2013-10-24 05:08:00,42.8,36.8,29.91,WNW,292,0.0,0.0,79,0.00,,,0.00,VWS V13.00,2013-10-24 09:08:00,
2013-10-24 05:13:00,42.6,36.5,29.91,WSW,248,5.3,5.3,79,0.00,,,0.00,VWS V13.00,2013-10-24 09:13:00,
2013-10-24 05:18:00,42.6,36.5,29.92,WNW,292,0.0,5.3,79,0.00,,,0.00,VWS V13.00,2013-10-24 09:18:00,
2013-10-24 05:23:00,42.6,36.5,29.92,WNW,292,0.0,0.0,79,0.00,,,0.00,VWS V13.00,2013-10-24 09:23:00,
2013-10-24 05:28:00,42.6,36.5,29.93,West,270,6.0,6.0,79,0.00,,,0.00,VWS V13.00,2013-10-24 09:28:00,
2013-10-24 05:33:00,42.6,36.5,29.93,West,270,2.4,6.0,79,0.00,,,0.00,VWS V13.00,2013-10-24 09:33:00,
2013-10-24 05:38:00,42.6,36.5,29.93,NW,315,0.0,6.0,79,0.00,,,0.00,VWS V13.00,2013-10-24 09:38:00,
2013-10-24 05:43:00,42.6,36.5,29.93,WNW,292,0.0,0.0,79,0.00,,,0.00,VWS V13.00,2013-10-24 09:43:00,
2013-10-24 05:48:00,42.6,36.5,29.93,West,270,0.0,2.2,79,0.00,,,0.00,VWS V13.00,2013-10-24 09:48:00,
2013-10-24 05:53:00,42.6,36.5,29.94,West,270,1.5,2.2,79,0.00,,,0.00,VWS V13.00,2013-10-24 09:53:00,
2013-10-24 05:58:00,42.6,36.5,29.94,West,270,2.9,2.9,79,0.00,,,0.00,VWS V13.00,2013-10-24 09:58:00,
2013-10-24 06:03:00,42.6,36.5,29.94,SW,225,6.4,6.4,79,0.00,,,0.00,VWS V13.00,2013-10-24 10:03:00,
2013-10-24 06:08:00,42.6,36.9,29.94,West,270,5.5,6.4,80,0.00,,,0.00,VWS V13.00,2013-10-24 10:08:00,
2013-10-24 06:13:00,42.6,36.9,29.94,West,270,3.3,6.4,80,0.00,,,0.00,VWS V13.00,2013-10-24 10:13:00,
2013-10-24 06:18:00,42.6,36.9,29.94,WNW,292,0.0,6.4,80,0.00,,,0.00,VWS V13.00,2013-10-24 10:18:00,
2013-10-24 06:23:00,42.6,36.9,29.94,WSW,248,2.6,2.6,80,0.00,,,0.00,VWS V13.00,2013-10-24 10:23:00,
2013-10-24 06:28:00,42.6,36.9,29.94,West,270,0.0,2.6,80,0.00,,,0.00,VWS V13.00,2013-10-24 10:28:00,
2013-10-24 06:33:00,42.6,36.9,29.95,ESE,112,0.0,2.6,80,0.00,,,0.00,VWS V13.00,2013-10-24 10:33:00,
2013-10-24 06:38:00,42.6,36.9,29.95,SW,225,2.9,8.7,80,0.00,,,0.00,VWS V13.00,2013-10-24 10:38:00,
2013-10-24 06:43:00,42.6,36.9,29.96,West,270,2.2,2.2,80,0.00,,,0.00,VWS V13.00,2013-10-24 10:43:00,
2013-10-24 06:48:00,42.4,36.7,29.96,West,270,0.0,2.2,80,0.00,,,0.00,VWS V13.00,2013-10-24 10:48:00,
2013-10-24 06:53:00,42.4,36.7,29.96,NW,315,2.0,2.2,80,0.00,,,0.00,VWS V13.00,2013-10-24 10:53:00,
2013-10-24 06:58:00,42.4,36.7,29.96,West,270,1.3,2.2,80,0.00,,,0.00,VWS V13.00,2013-10-24 10:58:00,
2013-10-24 07:03:00,42.4,36.7,29.96,West,270,3.5,3.5,80,0.00,,,0.00,VWS V13.00,2013-10-24 11:03:00,
2013-10-24 07:08:00,42.4,36.7,29.96,West,270,2.9,3.5,80,0.00,,,0.00,VWS V13.00,2013-10-24 11:08:00,
2013-10-24 07:13:00,42.4,36.7,29.96,NNW,338,0.0,4.6,80,0.00,,,0.00,VWS V13.00,2013-10-24 11:13:00,
2013-10-24 07:18:00,42.4,36.7,29.97,WSW,248,0.0,4.6,80,0.00,,,0.00,VWS V13.00,2013-10-24 11:18:00,
2013-10-24 07:23:00,42.4,36.7,29.97,West,270,0.0,3.8,80,0.00,,,0.00,VWS V13.00,2013-10-24 11:23:00,
2013-10-24 07:28:00,42.4,36.7,29.97,WNW,292,0.0,3.8,80,0.00,,,0.00,VWS V13.00,2013-10-24 11:28:00,
2013-10-24 07:34:00,42.2,36.2,29.97,SSW,202,0.0,3.8,79,0.00,,,0.00,VWS V13.00,2013-10-24 11:34:00,
2013-10-24 07:39:00,42.0,36.0,29.97,SSE,158,0.0,3.8,79,0.00,,,0.00,VWS V13.00,2013-10-24 11:39:00,
2013-10-24 07:44:00,42.4,36.4,29.97,WNW,292,0.0,0.0,79,0.00,,,0.00,VWS V13.00,2013-10-24 11:44:00,
2013-10-24 07:49:00,42.4,36.4,29.97,WNW,292,0.0,5.1,79,0.00,,,0.00,VWS V13.00,2013-10-24 11:49:00,
2013-10-24 07:54:00,42.4,36.4,29.97,NW,315,0.0,5.1,79,0.00,,,0.00,VWS V13.00,2013-10-24 11:54:00,
2013-10-24 07:59:00,42.4,36.4,29.98,NNW,338,2.9,5.1,79,0.00,,,0.00,VWS V13.00,2013-10-24 11:59:00,
2013-10-24 08:04:00,42.4,36.4,29.98,NNW,338,2.6,2.6,79,0.00,,,0.00,VWS V13.00,2013-10-24 12:04:00,
2013-10-24 08:09:00,42.4,36.4,29.99,West,270,7.6,7.6,79,0.00,,,0.00,VWS V13.00,2013-10-24 12:09:00,
2013-10-24 08:14:00,42.6,36.5,29.99,WSW,248,0.0,7.6,79,0.00,,,0.00,VWS V13.00,2013-10-24 12:14:00,
2013-10-24 08:19:00,42.6,36.5,29.99,WSW,248,4.9,7.6,79,0.00,,,0.00,VWS V13.00,2013-10-24 12:19:00,
2013-10-24 08:24:00,42.8,36.8,29.99,West,270,5.3,6.0,79,0.00,,,0.00,VWS V13.00,2013-10-24 12:24:00,
2013-10-24 08:29:00,42.9,36.8,30.00,West,270,0.0,6.0,79,0.00,,,0.00,VWS V13.00,2013-10-24 12:29:00,
2013-10-24 08:34:00,43.1,37.0,29.99,West,270,3.1,6.0,79,0.00,,,0.00,VWS V13.00,2013-10-24 12:34:00,
2013-10-24 08:39:00,43.3,36.9,29.99,West,270,9.6,9.6,78,0.00,,,0.00,VWS V13.00,2013-10-24 12:39:00,
2013-10-24 08:44:00,43.5,37.1,29.99,SSE,158,0.0,3.1,78,0.00,,,0.00,VWS V13.00,2013-10-24 12:44:00,
2013-10-24 08:49:00,43.5,37.1,30.00,West,270,4.4,4.4,78,0.00,,,0.00,VWS V13.00,2013-10-24 12:49:00,
2013-10-24 08:54:00,46.9,41.1,30.00,West,270,0.0,4.4,80,0.00,,,0.00,VWS V13.00,2013-10-24 12:54:00,
2013-10-24 08:59:00,54.8,47.0,30.00,West,270,0.0,10.5,75,0.00,,,0.00,VWS V13.00,2013-10-24 12:59:00,
2013-10-24 09:04:00,58.2,47.7,30.00,SW,225,0.0,6.7,68,0.00,,,0.00,VWS V13.00,2013-10-24 13:04:00,
2013-10-24 09:09:00,61.8,49.1,30.00,North,0,1.3,6.7,63,0.00,,,0.00,VWS V13.00,2013-10-24 13:09:00,
2013-10-24 09:14:00,66.3,50.2,30.01,WNW,292,6.9,6.9,56,0.00,,,0.00,VWS V13.00,2013-10-24 13:14:00,
2013-10-24 09:19:00,68.5,49.7,30.01,West,270,8.2,8.2,51,0.00,,,0.00,VWS V13.00,2013-10-24 13:19:00,
2013-10-24 09:24:00,70.5,49.9,30.01,West,270,2.4,3.1,48,0.00,,,0.00,VWS V13.00,2013-10-24 13:24:00,
2013-10-24 09:29:00,73.2,50.0,30.00,NE,45,0.0,4.0,44,0.00,,,0.00,VWS V13.00,2013-10-24 13:29:00,
2013-10-24 09:34:00,75.0,49.7,30.00,WSW,248,1.5,9.6,41,0.00,,,0.00,VWS V13.00,2013-10-24 13:34:00,
2013-10-24 09:39:00,75.5,48.1,30.01,NNW,338,0.0,9.6,38,0.00,,,0.00,VWS V13.00,2013-10-24 13:39:00,
2013-10-24 09:44:00,76.2,48.0,30.00,West,270,9.6,9.6,37,0.00,,,0.00,VWS V13.00,2013-10-24 13:44:00,
2013-10-24 09:49:00,77.1,48.8,30.00,WNW,292,0.0,9.6,37,0.00,,,0.00,VWS V13.00,2013-10-24 13:49:00,
2013-10-24 09:54:00,78.4,48.5,30.00,WNW,292,7.3,9.6,35,0.00,,,0.00,VWS V13.00,2013-10-24 13:54:00,
2013-10-24 09:59:00,78.6,48.7,30.00,SW,225,7.8,9.6,35,0.00,,,0.00,VWS V13.00,2013-10-24 13:59:00,
2013-10-24 10:05:00,79.1,48.3,30.00,North,0,2.2,7.8,34,0.00,,,0.00,VWS V13.00,2013-10-24 14:05:00,
2013-10-24 10:10:00,79.3,47.7,30.00,West,270,9.1,10.0,33,0.00,,,0.00,VWS V13.00,2013-10-24 14:10:00,
2013-10-24 10:15:00,79.5,47.1,30.00,WSW,248,0.0,10.0,32,0.00,,,0.00,VWS V13.00,2013-10-24 14:15:00,
2013-10-24 10:20:00,78.9,45.7,30.00,West,270,4.0,15.8,31,0.00,,,0.00,VWS V13.00,2013-10-24 14:20:00,
2013-10-24 10:25:00,77.1,44.2,30.01,WSW,248,8.9,11.6,31,0.00,,,0.00,VWS V13.00,2013-10-24 14:25:00,
2013-10-24 10:30:00,76.8,44.7,30.00,North,0,3.3,11.6,32,0.00,,,0.00,VWS V13.00,2013-10-24 14:30:00,
2013-10-24 10:35:00,76.6,43.7,30.00,WNW,292,5.5,11.6,31,0.00,,,0.00,VWS V13.00,2013-10-24 14:35:00,
2013-10-24 10:40:00,76.1,43.3,30.00,West,270,5.1,11.6,31,0.00,,,0.00,VWS V13.00,2013-10-24 14:40:00,
2013-10-24 10:45:00,75.3,43.4,30.01,WSW,248,5.5,6.9,32,0.00,,,0.00,VWS V13.00,2013-10-24 14:45:00,
2013-10-24 10:50:00,74.8,43.0,30.00,West,270,7.8,7.8,32,0.00,,,0.00,VWS V13.00,2013-10-24 14:50:00,
2013-10-24 10:55:00,73.9,40.5,30.00,West,270,11.6,11.6,30,0.00,,,0.00,VWS V13.00,2013-10-24 14:55:00,
2013-10-24 11:00:00,72.5,41.0,30.00,WSW,248,6.0,6.0,32,0.00,,,0.00,VWS V13.00,2013-10-24 15:00:00,
2013-10-24 11:05:00,67.1,36.3,30.00,North,0,2.2,11.4,32,0.00,,,0.00,VWS V13.00,2013-10-24 15:05:00,
2013-10-24 11:10:00,62.9,34.8,30.00,WSW,248,3.8,11.4,35,0.00,,,0.00,VWS V13.00,2013-10-24 15:10:00,
2013-10-24 11:15:00,60.0,33.7,30.00,West,270,9.1,11.4,37,0.00,,,0.00,VWS V13.00,2013-10-24 15:15:00,
2013-10-24 11:20:00,57.5,33.4,30.00,WSW,248,0.8,0.8,40,0.00,,,0.00,VWS V13.00,2013-10-24 15:20:00,
2013-10-24 11:25:00,56.3,33.5,29.99,WSW,248,18.7,18.7,42,0.00,,,0.00,VWS V13.00,2013-10-24 15:25:00,
2013-10-24 11:30:00,55.2,33.1,30.00,West,270,8.5,18.7,43,0.00,,,0.00,VWS V13.00,2013-10-24 15:30:00,
2013-10-24 11:35:00,54.3,32.9,29.99,NW,315,0.0,18.7,44,0.00,,,0.00,VWS V13.00,2013-10-24 15:35:00,
2013-10-24 11:40:00,53.7,32.9,29.99,West,270,7.6,7.6,45,0.00,,,0.00,VWS V13.00,2013-10-24 15:40:00,
2013-10-24 11:45:00,53.7,32.9,30.00,NNW,338,9.8,9.8,45,0.00,,,0.00,VWS V13.00,2013-10-24 15:45:00,
2013-10-24 11:50:00,54.8,35.0,29.99,WSW,248,15.8,15.8,47,0.00,,,0.00,VWS V13.00,2013-10-24 15:50:00,
2013-10-24 11:55:00,57.3,37.3,29.99,WSW,248,7.6,15.8,47,0.00,,,0.00,VWS V13.00,2013-10-24 15:55:00,
2013-10-24 12:00:00,60.9,38.3,29.99,West,270,11.4,11.4,43,0.00,,,0.00,VWS V13.00,2013-10-24 16:00:00,
2013-10-24 12:05:00,64.0,38.6,29.99,NNW,338,1.3,11.4,39,0.00,,,0.00,VWS V13.00,2013-10-24 16:05:00,
2013-10-24 12:10:00,65.8,39.5,29.98,NW,315,2.0,11.4,38,0.00,,,0.00,VWS V13.00,2013-10-24 16:10:00,
2013-10-24 12:15:00,66.7,38.2,29.98,West,270,12.7,12.7,35,0.00,,,0.00,VWS V13.00,2013-10-24 16:15:00,
2013-10-24 12:20:00,67.8,38.4,29.98,WSW,248,16.5,16.5,34,0.00,,,0.00,VWS V13.00,2013-10-24 16:20:00,
2013-10-24 12:25:00,68.5,38.3,29.98,WNW,292,9.8,16.5,33,0.00,,,0.00,VWS V13.00,2013-10-24 16:25:00,
2013-10-24 12:30:00,69.4,38.3,29.97,NNW,338,0.8,16.5,32,0.00,,,0.00,VWS V13.00,2013-10-24 16:30:00,
2013-10-24 12:36:00,67.6,36.7,29.97,SW,225,1.5,16.5,32,0.00,,,0.00,VWS V13.00,2013-10-24 16:36:00,
2013-10-24 12:41:00,66.5,36.5,29.97,WNW,292,5.1,5.1,33,0.00,,,0.00,VWS V13.00,2013-10-24 16:41:00,
2013-10-24 12:46:00,66.3,36.4,29.97,West,270,8.7,11.4,33,0.00,,,0.00,VWS V13.00,2013-10-24 16:46:00,
2013-10-24 12:51:00,65.1,36.1,29.97,West,270,3.8,11.4,34,0.00,,,0.00,VWS V13.00,2013-10-24 16:51:00,
2013-10-24 12:56:00,64.0,35.1,29.97,SW,225,6.9,11.4,34,0.00,,,0.00,VWS V13.00,2013-10-24 16:56:00,
2013-10-24 13:01:00,62.2,34.2,29.97,SW,225,9.3,9.3,35,0.00,,,0.00,VWS V13.00,2013-10-24 17:01:00,
2013-10-24 13:06:00,62.9,35.6,29.97,West,270,5.3,9.3,36,0.00,,,0.00,VWS V13.00,2013-10-24 17:06:00,
2013-10-24 13:11:00,63.6,35.5,29.96,SSE,158,6.0,9.3,35,0.00,,,0.00,VWS V13.00,2013-10-24 17:11:00,
2013-10-24 13:16:00,62.4,34.4,29.96,WSW,248,3.8,9.3,35,0.00,,,0.00,VWS V13.00,2013-10-24 17:16:00,
2013-10-24 13:21:00,61.5,34.3,29.96,West,270,18.3,18.3,36,0.00,,,0.00,VWS V13.00,2013-10-24 17:21:00,
2013-10-24 13:26:00,60.6,34.2,29.96,South,180,2.9,18.3,37,0.00,,,0.00,VWS V13.00,2013-10-24 17:26:00,
2013-10-24 13:31:00,59.7,32.7,29.96,SSE,158,7.3,18.3,36,0.00,,,0.00,VWS V13.00,2013-10-24 17:31:00,
2013-10-24 13:36:00,58.8,32.6,29.96,West,270,2.9,18.3,37,0.00,,,0.00,VWS V13.00,2013-10-24 17:36:00,
2013-10-24 13:41:00,57.3,31.9,29.96,SE,135,3.1,12.7,38,0.00,,,0.00,VWS V13.00,2013-10-24 17:41:00,
2013-10-24 13:46:00,56.4,31.8,29.96,NW,315,6.0,12.7,39,0.00,,,0.00,VWS V13.00,2013-10-24 17:46:00,
2013-10-24 13:51:00,57.0,32.3,29.95,SW,225,1.3,12.7,39,0.00,,,0.00,VWS V13.00,2013-10-24 17:51:00,
2013-10-24 13:56:00,57.9,32.5,29.96,NW,315,5.5,16.5,38,0.00,,,0.00,VWS V13.00,2013-10-24 17:56:00,
2013-10-24 14:01:00,57.9,31.8,29.95,WNW,292,8.9,8.9,37,0.00,,,0.00,VWS V13.00,2013-10-24 18:01:00,
2013-10-24 14:06:00,57.0,31.0,29.95,SW,225,5.1,8.9,37,0.00,,,0.00,VWS V13.00,2013-10-24 18:06:00,
2013-10-24 14:11:00,55.7,30.5,29.95,WSW,248,10.5,13.4,38,0.00,,,0.00,VWS V13.00,2013-10-24 18:11:00,
2013-10-24 14:16:00,55.5,31.0,29.96,West,270,10.0,15.4,39,0.00,,,0.00,VWS V13.00,2013-10-24 18:16:00,
2013-10-24 14:21:00,55.2,30.7,29.95,SSE,158,0.0,0.0,39,0.00,,,0.00,VWS V13.00,2013-10-24 18:21:00,
2013-10-24 14:26:00,54.8,30.3,29.96,WNW,292,5.3,5.3,39,0.00,,,0.00,VWS V13.00,2013-10-24 18:26:00,
2013-10-24 14:31:00,54.5,29.4,29.96,WNW,292,4.2,5.3,38,0.00,,,0.00,VWS V13.00,2013-10-24 18:31:00,
2013-10-24 14:36:00,55.0,31.1,29.96,West,270,0.0,5.3,40,0.00,,,0.00,VWS V13.00,2013-10-24 18:36:00,
2013-10-24 14:41:00,55.9,32.0,29.96,WNW,292,1.3,2.4,40,0.00,,,0.00,VWS V13.00,2013-10-24 18:41:00,
2013-10-24 14:46:00,56.1,32.1,29.96,West,270,17.4,17.4,40,0.00,,,0.00,VWS V13.00,2013-10-24 18:46:00,
2013-10-24 14:51:00,55.9,32.0,29.96,West,270,3.8,17.4,40,0.00,,,0.00,VWS V13.00,2013-10-24 18:51:00,
2013-10-24 14:56:00,55.2,31.9,29.96,WNW,292,3.1,17.4,41,0.00,,,0.00,VWS V13.00,2013-10-24 18:56:00,
2013-10-24 15:01:00,55.4,32.1,29.96,WNW,292,12.3,12.3,41,0.00,,,0.00,VWS V13.00,2013-10-24 19:01:00,
2013-10-24 15:06:00,55.4,32.1,29.96,WSW,248,4.4,12.3,41,0.00,,,0.00,VWS V13.00,2013-10-24 19:06:00,
2013-10-24 15:12:00,56.1,31.5,29.96,West,270,11.8,12.3,39,0.00,,,0.00,VWS V13.00,2013-10-24 19:12:00,
2013-10-24 15:17:00,56.1,30.9,29.96,ESE,112,4.0,12.3,38,0.00,,,0.00,VWS V13.00,2013-10-24 19:17:00,
2013-10-24 15:22:00,56.1,30.2,29.96,WSW,248,13.1,13.1,37,0.00,,,0.00,VWS V13.00,2013-10-24 19:22:00,
2013-10-24 15:27:00,55.7,30.5,29.97,West,270,15.6,15.6,38,0.00,,,0.00,VWS V13.00,2013-10-24 19:27:00,
2013-10-24 15:32:00,55.2,30.1,29.97,West,270,6.0,15.6,38,0.00,,,0.00,VWS V13.00,2013-10-24 19:32:00,
2013-10-24 15:37:00,55.0,30.5,29.97,SSE,158,0.0,15.6,39,0.00,,,0.00,VWS V13.00,2013-10-24 19:37:00,
2013-10-24 15:42:00,55.2,31.3,29.97,WNW,292,4.4,4.4,40,0.00,,,0.00,VWS V13.00,2013-10-24 19:42:00,
2013-10-24 15:47:00,55.2,31.3,29.97,NNW,338,4.0,4.6,40,0.00,,,0.00,VWS V13.00,2013-10-24 19:47:00,
2013-10-24 15:52:00,54.8,31.0,29.97,SSW,202,2.4,8.2,40,0.00,,,0.00,VWS V13.00,2013-10-24 19:52:00,
2013-10-24 15:57:00,54.5,30.7,29.98,WNW,292,7.8,8.2,40,0.00,,,0.00,VWS V13.00,2013-10-24 19:57:00,
2013-10-24 16:02:00,54.3,30.5,29.98,NNW,338,1.5,1.5,40,0.00,,,0.00,VWS V13.00,2013-10-24 20:02:00,
2013-10-24 16:07:00,54.5,31.3,29.98,West,270,8.7,8.7,41,0.00,,,0.00,VWS V13.00,2013-10-24 20:07:00,
2013-10-24 16:12:00,54.8,31.0,29.99,WSW,248,0.6,8.7,40,0.00,,,0.00,VWS V13.00,2013-10-24 20:12:00,
2013-10-24 16:17:00,55.0,30.5,29.98,West,270,5.5,8.7,39,0.00,,,0.00,VWS V13.00,2013-10-24 20:17:00,
2013-10-24 16:22:00,54.6,30.2,29.98,WNW,292,5.5,10.7,39,0.00,,,0.00,VWS V13.00,2013-10-24 20:22:00,
2013-10-24 16:27:00,54.3,29.9,29.99,North,0,2.0,10.7,39,0.00,,,0.00,VWS V13.00,2013-10-24 20:27:00,
2013-10-24 16:32:00,53.9,29.5,29.99,NE,45,0.0,10.7,39,0.00,,,0.00,VWS V13.00,2013-10-24 20:32:00,
2013-10-24 16:38:00,54.1,30.3,29.99,WSW,248,10.0,10.7,40,0.00,,,0.00,VWS V13.00,2013-10-24 20:38:00,
2013-10-24 16:43:00,54.1,30.3,29.98,WNW,292,5.8,7.6,40,0.00,,,0.00,VWS V13.00,2013-10-24 20:43:00,
2013-10-24 16:48:00,54.1,29.7,29.99,West,270,1.1,7.6,39,0.00,,,0.00,VWS V13.00,2013-10-24 20:48:00,
2013-10-24 16:53:00,53.4,29.7,29.99,SW,225,0.0,11.8,40,0.00,,,0.00,VWS V13.00,2013-10-24 20:53:00,
2013-10-24 16:58:00,53.2,29.5,29.99,NNW,338,2.0,11.8,40,0.00,,,0.00,VWS V13.00,2013-10-24 20:58:00,
2013-10-24 17:03:00,52.8,29.2,29.99,West,270,9.3,9.3,40,0.00,,,0.00,VWS V13.00,2013-10-24 21:03:00,
2013-10-24 17:08:00,52.3,29.3,29.99,NW,315,0.0,9.8,41,0.00,,,0.00,VWS V13.00,2013-10-24 21:08:00,
2013-10-24 17:13:00,52.3,29.3,30.00,SE,135,1.1,9.8,41,0.00,,,0.00,VWS V13.00,2013-10-24 21:13:00,
2013-10-24 17:18:00,51.9,29.0,30.00,North,0,0.0,9.8,41,0.00,,,0.00,VWS V13.00,2013-10-24 21:18:00,
2013-10-24 17:23:00,51.6,29.3,30.00,WNW,292,3.3,4.6,42,0.00,,,0.00,VWS V13.00,2013-10-24 21:23:00,
2013-10-24 17:28:00,51.6,29.3,30.00,West,270,9.3,9.3,42,0.00,,,0.00,VWS V13.00,2013-10-24 21:28:00,
2013-10-24 17:33:00,51.4,29.7,30.00,West,270,4.6,9.3,43,0.00,,,0.00,VWS V13.00,2013-10-24 21:33:00,
2013-10-24 17:38:00,51.2,29.5,30.00,West,270,2.2,11.4,43,0.00,,,0.00,VWS V13.00,2013-10-24 21:38:00,
2013-10-24 17:43:00,50.9,29.2,30.01,SSW,202,3.5,3.5,43,0.00,,,0.00,VWS V13.00,2013-10-24 21:43:00,
2013-10-24 17:48:00,50.7,29.0,30.01,West,270,3.1,5.5,43,0.00,,,0.00,VWS V13.00,2013-10-24 21:48:00,
2013-10-24 17:53:00,50.7,29.6,30.01,WNW,292,0.0,5.5,44,0.00,,,0.00,VWS V13.00,2013-10-24 21:53:00,
2013-10-24 17:58:00,50.5,29.4,30.01,West,270,8.9,8.9,44,0.00,,,0.00,VWS V13.00,2013-10-24 21:58:00,
2013-10-24 18:03:00,50.3,29.2,30.01,SW,225,0.8,8.9,44,0.00,,,0.00,VWS V13.00,2013-10-24 22:03:00,
2013-10-24 18:08:00,50.3,29.8,30.02,SSE,158,1.5,8.9,45,0.00,,,0.00,VWS V13.00,2013-10-24 22:08:00,
2013-10-24 18:13:00,50.1,29.6,30.02,West,270,5.3,8.9,45,0.00,,,0.00,VWS V13.00,2013-10-24 22:13:00,
2013-10-24 18:18:00,50.1,30.1,30.02,NW,315,4.4,8.9,46,0.00,,,0.00,VWS V13.00,2013-10-24 22:18:00,
2013-10-24 18:24:00,50.1,30.1,30.02,West,270,5.3,8.9,46,0.00,,,0.00,VWS V13.00,2013-10-24 22:24:00,
2013-10-24 18:29:00,50.0,30.0,30.02,WSW,248,10.5,10.5,46,0.00,,,0.00,VWS V13.00,2013-10-24 22:29:00,
2013-10-24 18:34:00,49.8,30.4,30.03,WSW,248,12.9,12.9,47,0.00,,,0.00,VWS V13.00,2013-10-24 22:34:00,
2013-10-24 18:39:00,49.8,30.4,30.02,SW,225,9.1,12.9,47,0.00,,,0.00,VWS V13.00,2013-10-24 22:39:00,
2013-10-24 18:44:00,49.8,30.4,30.03,SW,225,4.2,17.0,47,0.00,,,0.00,VWS V13.00,2013-10-24 22:44:00,
2013-10-24 18:49:00,49.8,30.4,30.03,West,270,7.3,17.2,47,0.00,,,0.00,VWS V13.00,2013-10-24 22:49:00,
2013-10-24 18:54:00,49.8,30.9,30.03,West,270,8.5,17.2,48,0.00,,,0.00,VWS V13.00,2013-10-24 22:54:00,
2013-10-24 18:59:00,49.6,30.7,30.04,West,270,12.0,17.2,48,0.00,,,0.00,VWS V13.00,2013-10-24 22:59:00,
2013-10-24 19:04:00,49.6,31.2,30.04,West,270,11.1,11.1,49,0.00,,,0.00,VWS V13.00,2013-10-24 23:04:00,
2013-10-24 19:09:00,49.6,31.2,30.04,West,270,11.8,11.8,49,0.00,,,0.00,VWS V13.00,2013-10-24 23:09:00,
2013-10-24 19:14:00,49.6,31.2,30.04,WNW,292,5.3,11.8,49,0.00,,,0.00,VWS V13.00,2013-10-24 23:14:00,
2013-10-24 19:19:00,49.2,30.9,30.04,West,270,3.3,11.8,49,0.00,,,0.00,VWS V13.00,2013-10-24 23:19:00,
2013-10-24 19:24:00,49.2,30.9,30.04,WSW,248,6.7,6.7,49,0.00,,,0.00,VWS V13.00,2013-10-24 23:24:00,
2013-10-24 19:29:00,48.9,31.1,30.04,WNW,292,5.1,6.7,50,0.00,,,0.00,VWS V13.00,2013-10-24 23:29:00,
2013-10-24 19:34:00,48.7,30.4,30.05,West,270,0.0,7.3,49,0.00,,,0.00,VWS V13.00,2013-10-24 23:34:00,
2013-10-24 19:39:00,48.5,30.2,30.05,West,270,1.7,7.3,49,0.00,,,0.00,VWS V13.00,2013-10-24 23:39:00,
2013-10-24 19:44:00,48.2,30.5,30.05,SSW,202,4.2,4.2,50,0.00,,,0.00,VWS V13.00,2013-10-24 23:44:00,
2013-10-24 19:49:00,48.0,30.3,30.05,West,270,4.4,4.4,50,0.00,,,0.00,VWS V13.00,2013-10-24 23:49:00,
2013-10-24 19:54:00,47.8,30.6,30.05,NW,315,0.0,4.4,51,0.00,,,0.00,VWS V13.00,2013-10-24 23:54:00,
2013-10-24 19:59:00,47.4,30.7,30.05,South,180,0.0,5.3,52,0.00,,,0.00,VWS V13.00,2013-10-24 23:59:00,
2013-10-24 20:04:00,47.4,30.7,30.06,WSW,248,2.2,2.4,52,0.00,,,0.00,VWS V13.00,2013-10-25 00:04:00,
2013-10-24 20:09:00,47.3,30.6,30.05,SE,135,0.0,2.4,52,0.00,,,0.00,VWS V13.00,2013-10-25 00:09:00,
2013-10-24 20:14:00,47.1,30.4,30.05,West,270,10.5,10.5,52,0.00,,,0.00,VWS V13.00,2013-10-25 00:14:00,
2013-10-24 20:19:00,46.9,30.7,30.06,West,270,10.5,10.5,53,0.00,,,0.00,VWS V13.00,2013-10-25 00:19:00,
2013-10-24 20:24:00,46.9,30.7,30.06,West,270,10.0,13.1,53,0.00,,,0.00,VWS V13.00,2013-10-25 00:24:00,
2013-10-24 20:29:00,46.7,30.5,30.06,WNW,292,7.8,13.1,53,0.00,,,0.00,VWS V13.00,2013-10-25 00:29:00,
2013-10-24 20:34:00,46.5,30.8,30.06,South,180,0.0,14.0,54,0.00,,,0.00,VWS V13.00,2013-10-25 00:34:00,
2013-10-24 20:39:00,46.5,30.8,30.06,WSW,248,0.0,14.0,54,0.00,,,0.00,VWS V13.00,2013-10-25 00:39:00,
2013-10-24 20:44:00,46.2,30.5,30.06,SW,225,3.3,7.3,54,0.00,,,0.00,VWS V13.00,2013-10-25 00:44:00,
2013-10-24 20:49:00,46.2,30.9,30.07,South,180,4.6,7.3,55,0.00,,,0.00,VWS V13.00,2013-10-25 00:49:00,
2013-10-24 20:54:00,46.0,30.8,30.07,WSW,248,8.0,8.0,55,0.00,,,0.00,VWS V13.00,2013-10-25 00:54:00,
2013-10-24 20:59:00,46.0,30.8,30.07,WSW,248,7.8,8.0,55,0.00,,,0.00,VWS V13.00,2013-10-25 00:59:00,
2013-10-24 21:04:00,46.0,30.8,30.07,SW,225,2.0,2.0,55,0.00,,,0.00,VWS V13.00,2013-10-25 01:04:00,
2013-10-24 21:09:00,46.0,30.8,30.07,West,270,10.5,10.5,55,0.00,,,0.00,VWS V13.00,2013-10-25 01:09:00,
2013-10-24 21:14:00,45.6,30.8,30.07,West,270,7.1,10.5,56,0.00,,,0.00,VWS V13.00,2013-10-25 01:14:00,
2013-10-24 21:19:00,45.6,30.8,30.07,WNW,292,6.9,10.5,56,0.00,,,0.00,VWS V13.00,2013-10-25 01:19:00,
2013-10-24 21:24:00,45.5,30.7,30.08,WSW,248,6.4,6.4,56,0.00,,,0.00,VWS V13.00,2013-10-25 01:24:00,
2013-10-24 21:29:00,45.5,31.2,30.08,West,270,5.3,6.4,57,0.00,,,0.00,VWS V13.00,2013-10-25 01:29:00,
2013-10-24 21:34:00,45.3,31.0,30.07,SW,225,2.2,7.6,57,0.00,,,0.00,VWS V13.00,2013-10-25 01:34:00,
2013-10-24 21:39:00,45.3,31.0,30.08,West,270,6.2,7.6,57,0.00,,,0.00,VWS V13.00,2013-10-25 01:39:00,
2013-10-24 21:44:00,45.3,31.0,30.09,WSW,248,9.3,9.3,57,0.00,,,0.00,VWS V13.00,2013-10-25 01:44:00,
2013-10-24 21:49:00,45.3,31.0,30.09,West,270,2.4,9.6,57,0.00,,,0.00,VWS V13.00,2013-10-25 01:49:00,
2013-10-24 21:54:00,45.1,30.8,30.09,West,270,5.3,9.6,57,0.00,,,0.00,VWS V13.00,2013-10-25 01:54:00,
2013-10-24 21:59:00,45.1,30.8,30.09,West,270,3.5,9.6,57,0.00,,,0.00,VWS V13.00,2013-10-25 01:59:00,
2013-10-24 22:04:00,45.1,30.8,30.09,West,270,1.5,3.8,57,0.00,,,0.00,VWS V13.00,2013-10-25 02:04:00,
2013-10-24 22:09:00,44.9,31.0,30.09,West,270,2.4,3.8,58,0.00,,,0.00,VWS V13.00,2013-10-25 02:09:00,
2013-10-24 22:14:00,44.9,31.0,30.09,WNW,292,0.0,3.8,58,0.00,,,0.00,VWS V13.00,2013-10-25 02:14:00,
2013-10-24 22:19:00,44.7,31.3,30.09,West,270,4.0,4.0,59,0.00,,,0.00,VWS V13.00,2013-10-25 02:19:00,
2013-10-24 22:24:00,44.7,30.9,30.09,West,270,2.9,3.3,58,0.00,,,0.00,VWS V13.00,2013-10-25 02:24:00,
2013-10-24 22:29:00,44.7,30.9,30.09,West,270,4.4,5.1,58,0.00,,,0.00,VWS V13.00,2013-10-25 02:29:00,
2013-10-24 22:34:00,44.6,31.2,30.09,WNW,292,5.1,9.8,59,0.00,,,0.00,VWS V13.00,2013-10-25 02:34:00,
2013-10-24 22:39:00,44.6,31.2,30.09,South,180,3.8,9.8,59,0.00,,,0.00,VWS V13.00,2013-10-25 02:39:00,
2013-10-24 22:44:00,44.6,31.2,30.09,WSW,248,2.2,6.2,59,0.00,,,0.00,VWS V13.00,2013-10-25 02:44:00,
2013-10-24 22:49:00,44.6,31.2,30.09,WSW,248,0.0,6.2,59,0.00,,,0.00,VWS V13.00,2013-10-25 02:49:00,
2013-10-24 22:54:00,44.4,31.4,30.09,WSW,248,6.4,6.4,60,0.00,,,0.00,VWS V13.00,2013-10-25 02:54:00,
2013-10-24 22:59:00,44.4,31.4,30.09,WSW,248,10.2,10.2,60,0.00,,,0.00,VWS V13.00,2013-10-25 02:59:00,
2013-10-24 23:04:00,44.4,31.4,30.09,NW,315,2.2,6.7,60,0.00,,,0.00,VWS V13.00,2013-10-25 03:04:00,
2013-10-24 23:09:00,44.4,31.4,30.09,West,270,7.6,8.0,60,0.00,,,0.00,VWS V13.00,2013-10-25 03:09:00,
2013-10-24 23:14:00,44.4,31.8,30.09,WSW,248,2.9,8.0,61,0.00,,,0.00,VWS V13.00,2013-10-25 03:14:00,
2013-10-24 23:19:00,44.4,31.8,30.09,SSW,202,2.4,8.0,61,0.00,,,0.00,VWS V13.00,2013-10-25 03:19:00,
2013-10-24 23:24:00,44.4,31.8,30.09,WSW,248,8.7,8.7,61,0.00,,,0.00,VWS V13.00,2013-10-25 03:24:00,
2013-10-24 23:29:00,44.2,32.0,30.09,West,270,2.4,8.7,62,0.00,,,0.00,VWS V13.00,2013-10-25 03:29:00,
2013-10-24 23:34:00,44.2,32.0,30.09,South,180,10.5,11.6,62,0.00,,,0.00,VWS V13.00,2013-10-25 03:34:00,
2013-10-24 23:39:00,44.2,32.0,30.09,West,270,13.4,13.4,62,0.00,,,0.00,VWS V13.00,2013-10-25 03:39:00,
2013-10-24 23:44:00,44.2,32.0,30.09,WSW,248,12.0,13.4,62,0.00,,,0.00,VWS V13.00,2013-10-25 03:44:00,
2013-10-24 23:49:00,44.0,31.8,30.10,WSW,248,2.4,13.4,62,0.00,,,0.00,VWS V13.00,2013-10-25 03:49:00,
2013-10-24 23:54:00,44.0,31.8,30.10,West,270,7.6,13.4,62,0.00,,,0.00,VWS V13.00,2013-10-25 03:54:00,
2013-10-24 23:59:00,43.8,31.6,30.09,West,270,2.0,13.4,62,0.00,,,0.00,VWS V13.00,2013-10-25 03:59:00,